SAS123 ENBR-LFMN

Flight info

Callsign SAS123
Flight time N/A
Altitude 39000
Route TUXIL DCT ZOL DCT OMIMA DCT LIMGO DCT SUTAL DCT GTQ DCT POGOL DCT LASAT DCT MOROK DCT GILIR DCT GEVEA DCT KOGAS/N0390F290 DCT MEDAM DCT VEVAR
Aircraft A20N/M-SDE2E3FGHIRWXY/LB1

Departure

Time 2026-04-27 16:55
Airport Bergen Airport, Flesland (ENBR)

Arrival

Time N/A
Airport Nice-Côte d'Azur Airport (LFMN)
Time Latitude Longitude Altitude Speed Heading
2026-04-27 16:32 60.28932 5.22548 175 ft 0 kts 108°
2026-04-27 16:42 60.28936 5.22518 175 ft 2 kts 108°
2026-04-27 16:42 60.28941 5.22487 175 ft 2 kts 108°
2026-04-27 16:42 60.28946 5.22456 175 ft 2 kts 108°
2026-04-27 16:42 60.28951 5.22425 175 ft 2 kts 108°
2026-04-27 16:43 60.28954 5.22410 175 ft 0 kts 108°
2026-04-27 16:44 60.28950 5.22420 175 ft 1 kts 127°
2026-04-27 16:45 60.28947 5.22422 175 ft 2 kts 146°
2026-04-27 16:45 60.28921 5.22392 174 ft 6 kts 249°
2026-04-27 16:45 60.28917 5.22277 171 ft 10 kts 216°
2026-04-27 16:45 60.28860 5.22303 170 ft 0 kts 171°
2026-04-27 16:46 60.28847 5.22306 170 ft 4 kts 173°
2026-04-27 16:46 60.28800 5.22320 170 ft 9 kts 171°
2026-04-27 16:46 60.28721 5.22347 168 ft 14 kts 170°
2026-04-27 16:46 60.28615 5.22385 166 ft 16 kts 169°
2026-04-27 16:47 60.28491 5.22420 163 ft 21 kts 172°
2026-04-27 16:47 60.28337 5.22472 159 ft 21 kts 169°
2026-04-27 16:47 60.28247 5.22498 156 ft 13 kts 171°
2026-04-27 16:47 60.28141 5.22536 153 ft 11 kts 170°
2026-04-27 16:48 60.28104 5.22540 152 ft 6 kts 180°
2026-04-27 16:48 60.28101 5.22540 152 ft 0 kts 179°
2026-04-27 16:50 60.28096 5.22539 152 ft 3 kts 181°
2026-04-27 16:50 60.28064 5.22503 151 ft 7 kts 233°
2026-04-27 16:50 60.28055 5.22427 152 ft 0 kts 262°
2026-04-27 16:53 60.28053 5.22390 153 ft 5 kts 263°
2026-04-27 16:53 60.28047 5.22289 153 ft 9 kts 266°
2026-04-27 16:53 60.28079 5.22233 153 ft 1 kts 348°
2026-04-27 16:53 60.28082 5.22233 153 ft 0 kts 351°
2026-04-27 16:54 60.28082 5.22232 153 ft 1 kts 351°
2026-04-27 16:54 60.28162 5.22210 153 ft 40 kts 349°
2026-04-27 16:54 60.28667 5.22039 161 ft 104 kts 351°
2026-04-27 16:54 60.29555 5.21745 155 ft 153 kts 349°
2026-04-27 16:55 60.30615 5.21430 725 ft 154 kts 349°
2026-04-27 16:55 60.31719 5.21068 1393 ft 168 kts 349°
2026-04-27 16:55 60.32918 5.20640 1879 ft 184 kts 349°
2026-04-27 16:55 60.34250 5.20157 2419 ft 206 kts 350°
2026-04-27 16:56 60.35735 5.19644 2990 ft 223 kts 351°
2026-04-27 16:56 60.37290 5.19119 3804 ft 231 kts 351°
2026-04-27 16:56 60.38879 5.18594 4754 ft 230 kts 350°
2026-04-27 16:56 60.40468 5.18062 5582 ft 238 kts 350°
2026-04-27 16:57 60.42140 5.17495 6147 ft 254 kts 349°
2026-04-27 16:57 60.43900 5.16895 7103 ft 258 kts 349°
2026-04-27 16:57 60.45675 5.16243 8002 ft 261 kts 342°
2026-04-27 16:57 60.47272 5.14521 8899 ft 263 kts 318°
2026-04-27 16:58 60.48342 5.11531 9810 ft 266 kts 292°
2026-04-27 16:58 60.48625 5.07808 10655 ft 275 kts 267°
2026-04-27 16:58 60.48061 5.03939 11036 ft 302 kts 244°
2026-04-27 16:58 60.46637 5.00560 11291 ft 332 kts 220°
2026-04-27 16:59 60.44547 4.98477 11856 ft 349 kts 197°
2026-04-27 16:59 60.42106 4.98109 12612 ft 359 kts 175°
2026-04-27 16:59 60.39698 4.99563 13347 ft 368 kts 153°
2026-04-27 16:59 60.37642 5.02676 14078 ft 374 kts 134°
2026-04-27 17:00 60.34812 5.09480 15180 ft 382 kts 127°
2026-04-27 17:00 60.32286 5.14423 16048 ft 385 kts 149°
2026-04-27 17:00 60.29825 5.16509 16699 ft 385 kts 169°
2026-04-27 17:01 60.27167 5.17003 17352 ft 385 kts 182°
2026-04-27 17:01 60.24481 5.17093 18013 ft 389 kts 179°
2026-04-27 17:01 60.21772 5.17767 18655 ft 395 kts 174°
2026-04-27 17:01 60.19084 5.18674 19207 ft 399 kts 173°
2026-04-27 17:02 60.16342 5.19633 19781 ft 402 kts 173°
2026-04-27 17:02 60.13576 5.20573 20361 ft 404 kts 173°
2026-04-27 17:02 60.10787 5.21490 20917 ft 408 kts 174°
2026-04-27 17:02 60.07976 5.22393 21486 ft 411 kts 174°
2026-04-27 17:03 60.05140 5.23291 22031 ft 414 kts 174°
2026-04-27 17:03 60.02280 5.24192 22590 ft 417 kts 174°
2026-04-27 17:03 59.99402 5.25097 23131 ft 421 kts 174°
2026-04-27 17:03 59.96499 5.26008 23661 ft 424 kts 175°
2026-04-27 17:04 59.93609 5.26914 24151 ft 427 kts 175°
2026-04-27 17:04 59.90662 5.27836 24619 ft 430 kts 175°
2026-04-27 17:04 59.87700 5.28760 25059 ft 432 kts 175°
2026-04-27 17:04 59.84719 5.29683 25509 ft 435 kts 175°
2026-04-27 17:05 59.81723 5.30610 25943 ft 437 kts 175°
2026-04-27 17:05 59.78706 5.31544 26360 ft 440 kts 175°
2026-04-27 17:05 59.75676 5.32483 26773 ft 442 kts 175°
2026-04-27 17:05 59.73660 5.33107 27035 ft 444 kts 175°
2026-04-27 17:06 59.69564 5.34373 27574 ft 447 kts 174°
2026-04-27 17:06 59.66482 5.35323 27961 ft 449 kts 174°
2026-04-27 17:06 59.63382 5.36277 28337 ft 452 kts 174°
2026-04-27 17:06 59.60270 5.37233 28711 ft 454 kts 174°
2026-04-27 17:07 59.57140 5.38193 29070 ft 456 kts 174°
2026-04-27 17:07 59.54040 5.39142 29414 ft 459 kts 174°
2026-04-27 17:07 59.50878 5.40108 29773 ft 460 kts 174°
2026-04-27 17:07 59.47706 5.41074 30087 ft 463 kts 174°
2026-04-27 17:08 59.44519 5.42044 30432 ft 465 kts 174°
2026-04-27 17:08 59.41316 5.43016 30721 ft 467 kts 174°
2026-04-27 17:08 59.38097 5.43992 31019 ft 468 kts 174°
2026-04-27 17:08 59.34873 5.44968 31304 ft 470 kts 174°
2026-04-27 17:09 59.31632 5.45947 31607 ft 471 kts 174°
2026-04-27 17:09 59.28388 5.46925 31970 ft 471 kts 174°
2026-04-27 17:09 59.25153 5.47899 32349 ft 470 kts 174°
2026-04-27 17:09 59.21924 5.48869 32696 ft 470 kts 174°
2026-04-27 17:10 59.18696 5.49836 33070 ft 469 kts 174°
2026-04-27 17:10 59.15521 5.50786 33392 ft 468 kts 174°
2026-04-27 17:10 59.12565 5.51668 33708 ft 467 kts 174°
2026-04-27 17:10 59.09349 5.52626 34037 ft 467 kts 174°
2026-04-27 17:11 59.06143 5.53579 34355 ft 466 kts 174°
2026-04-27 17:11 58.99731 5.55479 34856 ft 466 kts 174°
2026-04-27 17:11 58.96527 5.56425 35077 ft 466 kts 174°
2026-04-27 17:12 58.90106 5.58317 35496 ft 467 kts 174°
2026-04-27 17:12 58.86891 5.59262 35699 ft 467 kts 174°
2026-04-27 17:12 58.83723 5.60192 35910 ft 467 kts 174°